[[{"header":{"parameterUnit":"m.s-1","parameterCategory":2,"la1":30.2991,"la2":30.254,"lo1":-89.0895,"lo2":-89.0444,"dy":0.0017,"dx":0.0017,"nx":28,"ny":28,"refTime":"2025-01-04T09:00:00:Z","depth":"0","parameterNumber":2,"parameterNumberName":"U-component_of_CURRENTS"},"data":[0,0,0,0,0,0,0,0,0,0,0,0,0,0,0,0,0,0,0,0,0,0,0,0,0,0,0,0,0,0,0,0,0,0,0,0,0,0,0,0,0,0,0,0,0,0,0,0,0,0,0,0,0,0,0,0,0,0,0.1535,0.1535,0,0.1525,0.1525,0.1524,0.1516,0.1516,0.1516,0.1516,0.1499,0.1498,0.1498,0,0,0,0,0,0,0,0,0,0,0,0,0,0.1549,0.1549,0.1535,0.1535,0.1535,0.1525,0.1525,0.1524,0.1516,0.1516,0.1516,0.1516,0.1499,0.1498,0.1498,0,0,0,0,0,0,0,0,0,0,0,0,0,0.154,0.1549,0.1534,0.153,0.153,0.1525,0.1525,0.1524,0.1516,0.1516,0.1516,0.1516,0.1499,0.1498,0.1498,0.1492,0,0,0.1495,0.1495,0,0,0,0,0,0,0,0,0.1541,0.1539,0.1531,0.1531,0.153,0.1523,0.1524,0.1514,0.1516,0.152,0.1516,0.1516,0.1507,0.1506,0.1502,0.1491,0.149,0.1495,0.1495,0.1495,0.1494,0,0,0,0,0,0,0,0.1541,0.154,0.1529,0.1531,0.1531,0.1531,0.1529,0.1522,0.1512,0.1519,0.1519,0.1521,0.1507,0.1502,0.1501,0.149,0.1495,0.1495,0.1494,0.1494,0.1493,0.1493,0,0,0,0,0,0,0.1545,0.154,0.1529,0.1529,0.1538,0.153,0.1529,0.1524,0.1512,0.1511,0.1521,0.152,0.1504,0.1502,0.1501,0.1509,0.1495,0.1494,0.1493,0.1492,0.1493,0.1493,0,0,0,0,0,0,0.1546,0.1544,0.153,0.1536,0.1535,0.153,0.1525,0.1524,0.1523,0.1513,0.1512,0.1522,0.1504,0.1502,0.1498,0.1507,0.1494,0.1493,0.1492,0.1492,0.1493,0.1514,0,0,0,0,0,0,0.1546,0.1544,0.1542,0.1536,0.1534,0.1534,0.1525,0.1524,0.1525,0.1524,0.1514,0.1512,0.1504,0.1499,0.1497,0.1506,0.1492,0.1491,0.1492,0.1493,0.1513,0.1516,0.1518,0,0,0,0,0,0.1546,0.1544,0.1542,0.1541,0.1531,0.1534,0.1533,0.1529,0.1525,0.1528,0.1519,0.1513,0.1503,0.1499,0.1496,0.1505,0.1491,0.1492,0.1493,0.1512,0.1515,0.1518,0,0,0,0,0,0,0.1548,0.1543,0.154,0.1536,0.1539,0.1533,0.1535,0.1532,0.1527,0.1525,0.1514,0.1511,0.1512,0.1506,0.1502,0.1508,0.1498,0.1498,0.1513,0.1516,0.1518,0.151,0.1492,0,0,0,0,0,0.1548,0.1545,0.1544,0.1541,0.1543,0.154,0.154,0.1537,0.1533,0.1531,0.1522,0.1515,0.1514,0.1513,0.1507,0.1508,0.1519,0.1514,0.1516,0.1518,0.1511,0.1542,0.1546,0.1496,0.1496,0.1496,0,0,0.1547,0.1545,0.1542,0.1541,0.1541,0.1543,0.154,0.1542,0.1541,0.1529,0.1523,0.1521,0.1516,0.1517,0.1518,0.1514,0.1542,0.152,0.1521,0.1512,0.1543,0.1548,0.1553,0.1497,0.1497,0.1497,0,0,0.1547,0.1544,0.1543,0.1546,0.1549,0.1548,0.1551,0.1548,0.1546,0.1542,0.1536,0.1539,0.153,0.1531,0.153,0.1542,0.1552,0.1545,0.155,0.1581,0.1586,0.1589,0.1626,0.1633,0.1547,0.1547,0.1547,0,0.1548,0.1543,0.1545,0.1547,0.1547,0.1551,0.1552,0.1553,0.1547,0.1548,0.1543,0.1542,0.1536,0.1546,0.1547,0.1547,0.1569,0.154,0.1585,0.1589,0.1592,0.1629,0.1636,0.1549,0.1548,0.1548,0.1548,0,0.1548,0.1545,0.1547,0.1548,0.1551,0.1553,0.1556,0.1559,0.1557,0.1557,0.1563,0.1559,0.1562,0.1564,0.1555,0.1579,0.1588,0.1585,0.1578,0.1599,0.1636,0.1643,0.155,0.155,0.1549,0.1549,0,0,0.1539,0.1546,0.1544,0.1544,0.1549,0.155,0.1557,0.1563,0.1572,0.157,0.1584,0.1577,0.1582,0.1581,0.1581,0.1598,0.1645,0.16,0.1601,0.1637,0.1724,0.1733,0.1742,0.1654,0.1655,0.1656,0.1746,0,0.1536,0.1539,0.1542,0.1541,0.1542,0.1549,0.1556,0.1563,0.1573,0.159,0.1596,0.1609,0.1589,0.16,0.1613,0.164,0.1663,0.1622,0.1697,0.1699,0.1706,0.175,0.1655,0.1726,0.1753,0.1754,0.1755,0,0.1526,0.1531,0.153,0.1536,0.1538,0.1541,0.1555,0.1563,0.1591,0.1603,0.162,0.1634,0.1661,0.1643,0.1696,0.1674,0.1696,0.1712,0.1716,0.1717,0.1721,0.1707,0.1739,0.1638,0.1766,0.1765,0.1765,0,0.1506,0.1515,0.1514,0.1515,0.1529,0.1531,0.1541,0.1564,0.1577,0.162,0.1646,0.1675,0.1705,0.1731,0.1764,0.1739,0.183,0.1806,0.1834,0.1835,0.1763,0.1756,0.1703,0.1843,0.1842,0.1842,0.1842,0,0.1488,0.1484,0.1506,0.1502,0.1505,0.1522,0.1531,0.1549,0.159,0.1618,0.1653,0.1693,0.1728,0.1783,0.1796,0.1851,0.1864,0.1844,0.1861,0.177,0.1763,0.1679,0.1631,0.1845,0.1845,0.1844,0.1843,0,0.1451,0.1466,0.1465,0.1486,0.149,0.1491,0.1517,0.1535,0.158,0.1625,0.1647,0.1724,0.1808,0.185,0.1914,0.1904,0.1879,0.196,0.1856,0.1858,0.1774,0.1731,0.1696,0.1628,0.2003,0.2004,0.2004,0,0.1427,0.1426,0.1446,0.1446,0.1451,0.1461,0.1473,0.1516,0.1545,0.1644,0.1672,0.1777,0.1852,0.1962,0.1982,0.2036,0.192,0.1947,0.1872,0.1766,0.173,0.1673,0.1612,0.1792,0.179,0.179,0.1789,0,0.1382,0.1394,0.1396,0.1407,0.1414,0.142,0.1448,0.147,0.1539,0.1595,0.1685,0.1762,0.1901,0.1923,0.2,0.2005,0.1816,0.1931,0.1837,0.1577,0.1492,0.1436,0.1745,0.1781,0.1781,0.1782,0.1782,0.1783,0.1345,0.1338,0.1351,0.1352,0.1365,0.1372,0.136,0.1415,0.1456,0.1521,0.1639,0.1715,0.1786,0.19,0.1909,0.1808,0.1814,0.1685,0.1651,0.1612,0.1502,0.1806,0.185,0.1852,0.1853,0.1854,0.1854,0,0.1293,0.1293,0.1297,0.1292,0.1285,0.1312,0.1335,0.132,0.1349,0.1447,0.1517,0.1575,0.1602,0.1642,0.1598,0.1507,0.1442,0.1417,0.1271,0.1232,0.1511,0.1454,0.1393,0.1393,0.1393,0.1393,0.1394,0.1394,0.1263,0.1242,0.1244,0.1206,0.1207,0.1167,0.1163,0.1167,0.121,0.1237,0.1267,0.134,0.138,0.1342,0.1234,0.12,0.1057,0.1027,0.1014,0.1153,0.1174,0.1193,0.1127,0.0998,0.0998,0.0667,0.0664,0.0662]},{"header":{"parameterUnit":"m.s-1","parameterCategory":2,"la1":30.2991,"la2":30.254,"lo1":-89.0895,"lo2":-89.0444,"dy":0.0017,"dx":0.0017,"nx":28,"ny":28,"refTime":"2025-01-04T09:00:00:Z","depth":"0","parameterNumber":3,"parameterNumberName":"V-component_of_CURRENTS"},"data":[0,0,0,0,0,0,0,0,0,0,0,0,0,0,0,0,0,0,0,0,0,0,0,0,0,0,0,0,0,0,0,0,0,0,0,0,0,0,0,0,0,0,0,0,0,0,0,0,0,0,0,0,0,0,0,0,0,0,-0.0147,-0.0147,0,-0.0174,-0.0174,-0.0174,-0.0196,-0.0196,-0.0197,-0.0197,-0.0223,-0.0223,-0.0224,0,0,0,0,0,0,0,0,0,0,0,0,0,-0.0133,-0.0133,-0.0147,-0.0147,-0.0148,-0.0174,-0.0174,-0.0174,-0.0196,-0.0196,-0.0197,-0.0197,-0.0223,-0.0223,-0.0224,0,0,0,0,0,0,0,0,0,0,0,0,0,-0.0148,-0.0133,-0.0147,-0.0161,-0.0163,-0.0174,-0.0174,-0.0175,-0.0196,-0.0196,-0.0197,-0.0197,-0.0222,-0.0223,-0.0224,-0.0224,0,0,-0.0226,-0.0227,0,0,0,0,0,0,0,0,-0.0147,-0.0148,-0.0159,-0.016,-0.0162,-0.0181,-0.0179,-0.0191,-0.0196,-0.0184,-0.0197,-0.0197,-0.0208,-0.021,-0.0216,-0.0225,-0.0226,-0.0226,-0.0227,-0.0227,-0.0227,0,0,0,0,0,0,0,-0.0146,-0.0147,-0.0158,-0.0159,-0.0161,-0.0172,-0.0174,-0.0181,-0.0195,-0.0185,-0.0187,-0.0188,-0.0209,-0.0215,-0.0216,-0.0226,-0.0226,-0.0227,-0.0228,-0.0228,-0.023,-0.0229,0,0,0,0,0,0,-0.014,-0.0146,-0.0157,-0.0159,-0.0154,-0.0172,-0.0175,-0.0175,-0.0195,-0.0198,-0.0188,-0.0189,-0.0213,-0.0215,-0.0217,-0.0207,-0.0227,-0.0228,-0.0228,-0.023,-0.023,-0.0229,0,0,0,0,0,0,-0.0139,-0.0141,-0.0156,-0.0153,-0.0156,-0.0172,-0.0172,-0.0176,-0.0181,-0.0197,-0.02,-0.019,-0.0213,-0.0216,-0.0219,-0.0208,-0.0228,-0.0229,-0.0231,-0.023,-0.0229,-0.0193,0,0,0,0,0,0,-0.0139,-0.014,-0.0139,-0.0152,-0.0155,-0.016,-0.0172,-0.0176,-0.0181,-0.0183,-0.02,-0.0203,-0.0214,-0.0217,-0.0219,-0.021,-0.023,-0.0231,-0.023,-0.023,-0.0195,-0.0191,-0.0188,0,0,0,0,0,-0.0138,-0.0134,-0.0138,-0.014,-0.0153,-0.016,-0.0163,-0.0176,-0.0181,-0.0182,-0.019,-0.0202,-0.0214,-0.0218,-0.022,-0.0211,-0.0232,-0.0231,-0.023,-0.0196,-0.0192,-0.0189,0,0,0,0,0,0,-0.0126,-0.0136,-0.0141,-0.014,-0.0149,-0.0164,-0.0165,-0.0173,-0.0181,-0.0181,-0.0197,-0.02,-0.0198,-0.0209,-0.0213,-0.0209,-0.0224,-0.0224,-0.0198,-0.0194,-0.0191,-0.0188,-0.023,0,0,0,0,0,-0.0122,-0.0122,-0.0134,-0.0132,-0.0135,-0.0149,-0.0154,-0.0162,-0.0171,-0.0175,-0.0185,-0.0193,-0.0196,-0.0199,-0.0206,-0.0204,-0.0226,-0.0199,-0.0196,-0.0193,-0.0192,-0.022,-0.0219,-0.0226,-0.0226,-0.0226,0,0,-0.0118,-0.0122,-0.0123,-0.013,-0.0137,-0.0136,-0.0153,-0.0156,-0.0152,-0.0175,-0.0172,-0.0182,-0.0193,-0.019,-0.019,-0.0198,-0.0202,-0.0192,-0.0189,-0.019,-0.0219,-0.0219,-0.0218,-0.0225,-0.0225,-0.0225,0,0,-0.0106,-0.0111,-0.0107,-0.0111,-0.0119,-0.0125,-0.0125,-0.0137,-0.014,-0.014,-0.0151,-0.0155,-0.0163,-0.0167,-0.017,-0.0153,-0.0183,-0.0155,-0.0136,-0.0163,-0.0163,-0.0163,-0.0188,-0.0191,-0.0154,-0.0154,-0.0154,0,-0.0099,-0.0095,-0.0107,-0.0102,-0.01,-0.0118,-0.011,-0.0114,-0.0125,-0.0124,-0.0133,-0.0144,-0.0151,-0.0146,-0.0138,-0.0145,-0.0168,-0.0149,-0.0159,-0.016,-0.0161,-0.0186,-0.019,-0.0152,-0.0152,-0.0152,-0.0153,0,-0.0085,-0.0081,-0.0077,-0.0075,-0.0076,-0.0072,-0.0078,-0.0078,-0.0083,-0.0091,-0.0091,-0.0104,-0.0113,-0.0112,-0.0119,-0.0122,-0.014,-0.0152,-0.017,-0.0158,-0.0186,-0.019,-0.0149,-0.015,-0.0151,-0.0151,0,0,-0.0064,-0.0067,-0.0064,-0.0057,-0.006,-0.0056,-0.0047,-0.0045,-0.0038,-0.0052,-0.0048,-0.0052,-0.0069,-0.0073,-0.0085,-0.0104,-0.0125,-0.0128,-0.013,-0.0153,-0.0189,-0.017,-0.0174,-0.0144,-0.0145,-0.0145,-0.0205,0,-0.0047,-0.0032,-0.0037,-0.0018,-0.001,-0.0018,-0.0006,-0.0007,-0.0012,-0.0014,-0.0031,-0.0033,-0.0051,-0.0055,-0.0076,-0.0107,-0.0135,-0.0108,-0.0196,-0.0199,-0.0185,-0.0177,-0.0126,-0.0172,-0.0209,-0.021,-0.0211,0,-0.0024,-0.0017,0.0002,0.0014,0.0018,0.0026,0.004,0.0046,0.0038,0.0032,0.0017,-0.0001,-0.0017,-0.0042,-0.0102,-0.0086,-0.0136,-0.0168,-0.0172,-0.017,-0.0188,-0.019,-0.0179,-0.0251,-0.0217,-0.0217,-0.0216,0,0.0005,0.0016,0.0034,0.0038,0.0045,0.0055,0.0058,0.0058,0.0071,0.0056,0.0061,0.0025,0.002,-0.005,-0.0101,-0.0112,-0.0173,-0.02,-0.0235,-0.0235,-0.0215,-0.0212,-0.0283,-0.026,-0.026,-0.0259,-0.0259,0,0.0033,0.0049,0.0047,0.0058,0.0084,0.0078,0.0102,0.0099,0.0102,0.0129,0.0084,0.0102,0.0017,-0.002,-0.0095,-0.0162,-0.0172,-0.023,-0.0247,-0.02,-0.0195,-0.0276,-0.0324,-0.0262,-0.0261,-0.0261,-0.026,0,0.0066,0.0063,0.0086,0.0093,0.0098,0.0116,0.0132,0.0151,0.0146,0.0178,0.0178,0.0158,0.0122,0.0038,-0.0059,-0.0136,-0.0254,-0.0244,-0.0176,-0.0184,-0.029,-0.0337,-0.0433,-0.0488,-0.0306,-0.0306,-0.0305,0,0.0085,0.0099,0.0114,0.0132,0.0137,0.0156,0.0176,0.0173,0.0198,0.0227,0.0253,0.0232,0.0249,0.0116,-0.0008,-0.0136,-0.0234,-0.021,-0.0222,-0.0285,-0.0351,-0.0389,-0.0432,-0.0188,-0.0187,-0.0186,-0.0185,0,0.0123,0.0127,0.0143,0.0175,0.0197,0.0225,0.0251,0.0278,0.0295,0.0335,0.0391,0.0409,0.0319,0.0243,0.0069,-0.0036,-0.0251,-0.0198,-0.0283,-0.0278,-0.0305,-0.0368,-0.0164,-0.0177,-0.0178,-0.0179,-0.0179,-0.0179,0.0153,0.017,0.0189,0.0221,0.0249,0.0292,0.0319,0.0367,0.0425,0.0493,0.0507,0.0558,0.0441,0.0236,0.0094,-0.0151,-0.0194,-0.0239,-0.0296,-0.0334,-0.0368,-0.0141,-0.0159,-0.016,-0.016,-0.0161,-0.0161,0,0.0186,0.0202,0.0236,0.0269,0.0304,0.0313,0.0371,0.0408,0.0491,0.0577,0.0639,0.0628,0.0488,0.0279,-0.0021,-0.0209,-0.0303,-0.033,-0.0378,-0.0425,-0.0233,-0.0207,-0.0209,-0.0209,-0.0209,-0.0209,-0.0209,-0.0209,0.0204,0.0235,0.0246,0.0304,0.0333,0.0377,0.0411,0.0482,0.0549,0.064,0.0682,0.07,0.0547,0.0115,-0.0234,-0.033,-0.05,-0.0502,-0.0629,-0.0487,-0.0483,-0.0479,-0.0466,-0.0523,-0.0523,-0.078,-0.0782,-0.0784]}],[{"header":{"parameterUnit":"m.s-1","parameterCategory":2,"la1":30.2991,"la2":30.254,"lo1":-89.0895,"lo2":-89.0444,"dy":0.0017,"dx":0.0017,"nx":28,"ny":28,"refTime":"2025-01-04T09:00:00:Z","depth":"2","parameterNumber":2,"parameterNumberName":"U-component_of_CURRENTS"},"data":[0,0,0,0,0,0,0,0,0,0,0,0,0,0,0,0,0,0,0,0,0,0,0,0,0,0,0,0,0,0,0,0,0,0,0,0,0,0,0,0,0,0,0,0,0,0,0,0,0,0,0,0,0,0,0,0,0,0,0.1608,0.1608,0,0.16,0.1599,0.1599,0.1589,0.1589,0.1589,0.1589,0.1574,0.1573,0.1573,0,0,0,0,0,0,0,0,0,0,0,0,0,0.1622,0.1621,0.1608,0.1608,0.1608,0.16,0.1599,0.1599,0.1589,0.1589,0.1589,0.1589,0.1574,0.1573,0.1573,0,0,0,0,0,0,0,0,0,0,0,0,0,0.1613,0.1621,0.1608,0.1604,0.1603,0.16,0.1599,0.1599,0.1589,0.1589,0.1589,0.1589,0.1574,0.1573,0.1573,0.1568,0,0,0.1571,0.1571,0,0,0,0,0,0,0,0,0.1613,0.1612,0.1604,0.1604,0.1604,0.1597,0.1599,0.1589,0.1589,0.1592,0.1589,0.1589,0.1582,0.1581,0.1576,0.1568,0.1567,0.1571,0.157,0.157,0.157,0,0,0,0,0,0,0,0.1614,0.1612,0.1603,0.1604,0.1604,0.1604,0.1603,0.1597,0.1585,0.1592,0.1591,0.1594,0.1582,0.1577,0.1576,0.1567,0.1571,0.157,0.157,0.157,0.1572,0.1572,0,0,0,0,0,0,0.1619,0.1613,0.1603,0.1603,0.1611,0.1604,0.1602,0.1597,0.1586,0.1584,0.1594,0.1593,0.1578,0.1577,0.1575,0.1585,0.157,0.157,0.1569,0.1571,0.1572,0.1572,0,0,0,0,0,0,0.1619,0.1617,0.1604,0.161,0.1608,0.1604,0.1599,0.1597,0.1596,0.1587,0.1586,0.1595,0.1578,0.1576,0.1574,0.1583,0.1569,0.1569,0.1571,0.1571,0.1572,0.1593,0,0,0,0,0,0,0.1619,0.1617,0.1615,0.161,0.1608,0.1608,0.1599,0.1597,0.1598,0.1598,0.1588,0.1586,0.1578,0.1575,0.1573,0.1582,0.1568,0.157,0.1571,0.1572,0.1592,0.1594,0.1597,0,0,0,0,0,0.1619,0.1617,0.1615,0.1614,0.1605,0.1608,0.1608,0.1603,0.1599,0.1601,0.1593,0.1587,0.1579,0.1575,0.1573,0.1582,0.157,0.1571,0.1572,0.1591,0.1594,0.1596,0,0,0,0,0,0,0.1619,0.1616,0.1613,0.1609,0.1612,0.1608,0.1609,0.1606,0.1601,0.1598,0.1588,0.1586,0.1588,0.1582,0.1578,0.1585,0.1575,0.1576,0.159,0.1593,0.1595,0.1587,0.1568,0,0,0,0,0,0.1619,0.1617,0.1617,0.1614,0.1617,0.1613,0.1614,0.1611,0.1607,0.1605,0.1596,0.1591,0.159,0.1589,0.1584,0.1587,0.1598,0.1593,0.1595,0.1597,0.159,0.1622,0.1627,0.1575,0.1575,0.1575,0,0,0.1618,0.1617,0.1615,0.1615,0.1615,0.1617,0.1613,0.1616,0.1616,0.1604,0.1598,0.1596,0.1592,0.1595,0.1596,0.1592,0.1621,0.1599,0.16,0.1592,0.1624,0.1629,0.1633,0.1576,0.1576,0.1576,0,0,0.1619,0.1615,0.1616,0.1618,0.1622,0.1622,0.1625,0.1622,0.162,0.1617,0.1611,0.1614,0.1607,0.1608,0.1608,0.1621,0.1631,0.1623,0.163,0.1662,0.1666,0.167,0.1707,0.1714,0.1626,0.1626,0.1627,0,0.1619,0.1615,0.1618,0.162,0.1621,0.1625,0.1626,0.1627,0.1622,0.1623,0.1618,0.1618,0.1613,0.1624,0.1626,0.1626,0.1648,0.162,0.1665,0.1669,0.1673,0.1709,0.1717,0.1628,0.1627,0.1627,0.1627,0,0.162,0.1617,0.1619,0.1621,0.1625,0.1627,0.1631,0.1634,0.1632,0.1632,0.164,0.1636,0.164,0.1642,0.1633,0.1659,0.1668,0.1665,0.1659,0.168,0.1717,0.1724,0.1629,0.1629,0.1628,0.1628,0,0,0.161,0.1619,0.1617,0.1617,0.1623,0.1625,0.1632,0.164,0.165,0.1647,0.1662,0.1656,0.166,0.166,0.1661,0.1679,0.1727,0.1681,0.1682,0.1718,0.1807,0.1811,0.1819,0.1736,0.1737,0.1738,0.1828,0,0.1607,0.1611,0.1615,0.1615,0.1617,0.1625,0.1632,0.1641,0.1651,0.1669,0.1675,0.169,0.1669,0.168,0.1694,0.1721,0.1745,0.1703,0.178,0.1782,0.1783,0.1827,0.1609,0.167,0.1835,0.1837,0.1838,0,0.1597,0.1603,0.1603,0.1611,0.1613,0.1616,0.1632,0.1641,0.1671,0.1683,0.1702,0.1716,0.1744,0.1725,0.178,0.1757,0.1778,0.1795,0.1799,0.1795,0.1798,0.1672,0.1677,0.185,0.1849,0.1848,0.1847,0,0.1577,0.1587,0.1586,0.1588,0.1604,0.1606,0.1617,0.1642,0.1656,0.17,0.1727,0.1758,0.1788,0.1815,0.1847,0.1823,0.1915,0.1892,0.1914,0.1915,0.1739,0.1723,0.1929,0.1929,0.1928,0.1928,0.1928,0,0.1558,0.1554,0.1578,0.1575,0.1578,0.1596,0.1606,0.1626,0.1668,0.1697,0.1734,0.1774,0.1811,0.1866,0.188,0.1932,0.1949,0.1924,0.1941,0.1743,0.1727,0.1881,0.1874,0.1932,0.1931,0.193,0.193,0,0.1521,0.1536,0.1536,0.1559,0.1563,0.1564,0.1591,0.161,0.1657,0.1704,0.1725,0.1803,0.1887,0.193,0.1996,0.1984,0.2028,0.2038,0.1811,0.1799,0.1997,0.1991,0.2074,0.2075,0.2076,0.2077,0.2077,0,0.1496,0.1495,0.1516,0.1517,0.1522,0.1533,0.1546,0.159,0.1621,0.1721,0.175,0.1854,0.1929,0.2038,0.2007,0.2048,0.2088,0.189,0.1798,0.2006,0.2014,0.2006,0.1998,0.1575,0.1571,0.1568,0.1566,0,0.145,0.1462,0.1465,0.1477,0.1485,0.1492,0.1521,0.1544,0.1615,0.1671,0.1761,0.1838,0.1929,0.1873,0.1932,0.192,0.1865,0.1836,0.2108,0.1584,0.1545,0.155,0.1556,0.1539,0.1542,0.1544,0.1545,0.1546,0.1412,0.1406,0.142,0.1421,0.1435,0.1444,0.1433,0.1496,0.1539,0.1605,0.17,0.1729,0.173,0.1708,0.1679,0.1637,0.1774,0.1674,0.1678,0.1686,0.1625,0.1591,0.1582,0.1585,0.1587,0.159,0.1591,0,0.1362,0.1361,0.1365,0.1362,0.1359,0.1382,0.1407,0.141,0.145,0.1505,0.156,0.1406,0.1378,0.1405,0.1282,0.131,0.124,0.1277,0.1139,0.1167,0.1192,0.11,0.092,0.0919,0.0917,0.0915,0,0,0.1333,0.1315,0.1317,0.1283,0.1282,0.1254,0.125,0.1287,0.1307,0.1309,0.1262,0.1307,0.134,0.108,0.1062,0.0977,0.1065,0.094,0.1474,0.1338,0.136,0.1415,0.1307,0,0,0,0,0]},{"header":{"parameterUnit":"m.s-1","parameterCategory":2,"la1":30.2991,"la2":30.254,"lo1":-89.0895,"lo2":-89.0444,"dy":0.0017,"dx":0.0017,"nx":28,"ny":28,"refTime":"2025-01-04T09:00:00:Z","depth":"2","parameterNumber":3,"parameterNumberName":"V-component_of_CURRENTS"},"data":[0,0,0,0,0,0,0,0,0,0,0,0,0,0,0,0,0,0,0,0,0,0,0,0,0,0,0,0,0,0,0,0,0,0,0,0,0,0,0,0,0,0,0,0,0,0,0,0,0,0,0,0,0,0,0,0,0,0,-0.0118,-0.0118,0,-0.0142,-0.0143,-0.0143,-0.0164,-0.0164,-0.0164,-0.0164,-0.0192,-0.0192,-0.0193,0,0,0,0,0,0,0,0,0,0,0,0,0,-0.0105,-0.0105,-0.0118,-0.0118,-0.0119,-0.0142,-0.0143,-0.0143,-0.0164,-0.0164,-0.0164,-0.0164,-0.0192,-0.0192,-0.0193,0,0,0,0,0,0,0,0,0,0,0,0,0,-0.0118,-0.0105,-0.0118,-0.0131,-0.0133,-0.0142,-0.0143,-0.0143,-0.0163,-0.0164,-0.0164,-0.0164,-0.0191,-0.0192,-0.0193,-0.0193,0,0,-0.0196,-0.0196,0,0,0,0,0,0,0,0,-0.0117,-0.0119,-0.0129,-0.0131,-0.0132,-0.015,-0.0148,-0.016,-0.0163,-0.0152,-0.0164,-0.0164,-0.0178,-0.018,-0.0184,-0.0194,-0.0195,-0.0196,-0.0196,-0.0197,-0.0197,0,0,0,0,0,0,0,-0.0116,-0.0118,-0.0128,-0.0129,-0.0131,-0.0141,-0.0143,-0.0151,-0.0163,-0.0153,-0.0155,-0.0157,-0.0179,-0.0183,-0.0185,-0.0196,-0.0196,-0.0196,-0.0197,-0.0197,-0.0202,-0.0202,0,0,0,0,0,0,-0.0111,-0.0117,-0.0127,-0.0129,-0.0125,-0.0141,-0.0144,-0.0144,-0.0163,-0.0166,-0.0156,-0.0158,-0.0182,-0.0184,-0.0186,-0.0179,-0.0197,-0.0197,-0.0198,-0.0203,-0.0202,-0.0202,0,0,0,0,0,0,-0.0111,-0.0112,-0.0126,-0.0123,-0.0126,-0.0141,-0.0142,-0.0145,-0.0151,-0.0166,-0.0169,-0.0159,-0.0182,-0.0185,-0.0189,-0.018,-0.0198,-0.0198,-0.0203,-0.0203,-0.0202,-0.0169,0,0,0,0,0,0,-0.011,-0.0112,-0.0111,-0.0123,-0.0126,-0.0131,-0.0141,-0.0145,-0.0151,-0.0153,-0.0169,-0.0172,-0.0182,-0.0187,-0.0189,-0.0182,-0.0199,-0.0204,-0.0203,-0.0202,-0.017,-0.0167,-0.0165,0,0,0,0,0,-0.011,-0.0106,-0.0111,-0.0112,-0.0124,-0.0131,-0.0133,-0.0146,-0.0151,-0.0152,-0.016,-0.0172,-0.0184,-0.0187,-0.019,-0.0182,-0.0204,-0.0203,-0.0202,-0.0172,-0.0168,-0.0165,0,0,0,0,0,0,-0.0098,-0.0108,-0.0113,-0.0112,-0.0121,-0.0134,-0.0136,-0.0144,-0.0152,-0.0152,-0.0167,-0.017,-0.017,-0.0181,-0.0184,-0.0182,-0.0196,-0.0196,-0.0172,-0.0168,-0.0165,-0.0161,-0.02,0,0,0,0,0,-0.0095,-0.0095,-0.0107,-0.0106,-0.0109,-0.0122,-0.0126,-0.0134,-0.0143,-0.0147,-0.0157,-0.0165,-0.0168,-0.0172,-0.0179,-0.0178,-0.0199,-0.0175,-0.0172,-0.0169,-0.0168,-0.0196,-0.0195,-0.0199,-0.0199,-0.0199,0,0,-0.0092,-0.0095,-0.0096,-0.0103,-0.011,-0.011,-0.0125,-0.013,-0.0126,-0.0148,-0.0145,-0.0156,-0.0166,-0.0164,-0.0165,-0.0172,-0.0178,-0.0168,-0.0166,-0.0166,-0.0195,-0.0194,-0.0194,-0.0199,-0.0199,-0.0199,0,0,-0.0081,-0.0086,-0.0083,-0.0087,-0.0095,-0.0101,-0.0101,-0.0113,-0.0115,-0.0116,-0.0127,-0.0132,-0.014,-0.0144,-0.0147,-0.0132,-0.0162,-0.0135,-0.0118,-0.0144,-0.0144,-0.0145,-0.0169,-0.0171,-0.0134,-0.0134,-0.0134,0,-0.0075,-0.0072,-0.0083,-0.0079,-0.0078,-0.0095,-0.0088,-0.0092,-0.0103,-0.0102,-0.0111,-0.0122,-0.013,-0.0126,-0.0119,-0.0125,-0.0148,-0.0129,-0.0141,-0.0142,-0.0143,-0.0167,-0.0171,-0.0133,-0.0133,-0.0133,-0.0133,0,-0.0063,-0.0059,-0.0056,-0.0055,-0.0055,-0.0052,-0.0058,-0.0059,-0.0064,-0.0071,-0.0072,-0.0085,-0.0094,-0.0094,-0.0101,-0.0106,-0.0122,-0.0134,-0.015,-0.014,-0.0167,-0.0171,-0.013,-0.0131,-0.0131,-0.0132,0,0,-0.0045,-0.0047,-0.0044,-0.0038,-0.0041,-0.0037,-0.0029,-0.0027,-0.0021,-0.0035,-0.0031,-0.0037,-0.0053,-0.0058,-0.007,-0.0089,-0.011,-0.0112,-0.0114,-0.0136,-0.0173,-0.015,-0.0153,-0.013,-0.013,-0.0131,-0.0188,0,-0.0029,-0.0015,-0.002,-0.0002,0.0006,-0.0002,0.001,0.0009,0.0003,0.0002,-0.0015,-0.0018,-0.0036,-0.004,-0.0062,-0.0093,-0.012,-0.0093,-0.0179,-0.0181,-0.0163,-0.0157,-0.0111,-0.0155,-0.0192,-0.0193,-0.0193,0,-0.0008,-0.0002,0.0017,0.0029,0.0032,0.0039,0.0053,0.0059,0.0051,0.0046,0.003,0.0012,-0.0004,-0.0028,-0.0088,-0.0072,-0.0122,-0.0153,-0.0156,-0.015,-0.0166,-0.0171,-0.0161,-0.0201,-0.02,-0.0199,-0.0199,0,0.0018,0.0029,0.0047,0.005,0.0058,0.0067,0.007,0.0071,0.0084,0.0068,0.0074,0.0037,0.0033,-0.0037,-0.0086,-0.0098,-0.0156,-0.0183,-0.0214,-0.0214,-0.0197,-0.0194,-0.0243,-0.0243,-0.0243,-0.0243,-0.0242,0,0.0044,0.006,0.0059,0.0069,0.0094,0.0089,0.0112,0.011,0.0113,0.014,0.0095,0.0113,0.0029,-0.0006,-0.008,-0.0143,-0.0155,-0.0209,-0.0225,-0.0183,-0.0178,-0.0236,-0.0235,-0.0245,-0.0244,-0.0244,-0.0243,0,0.0076,0.0073,0.0095,0.0103,0.0108,0.0125,0.0142,0.016,0.0155,0.0188,0.0187,0.0169,0.0134,0.0052,-0.0043,-0.0116,-0.0193,-0.022,-0.0157,-0.0165,-0.0243,-0.0239,-0.0277,-0.0276,-0.0276,-0.0276,-0.0275,0,0.0094,0.0107,0.0122,0.014,0.0144,0.0163,0.0183,0.0181,0.0207,0.0236,0.0262,0.0242,0.026,0.0133,0.0018,-0.0105,-0.0159,-0.0184,-0.0198,-0.0234,-0.0246,-0.0243,-0.0239,-0.0169,-0.0168,-0.0167,-0.0166,0,0.013,0.0134,0.0149,0.0181,0.0203,0.023,0.0256,0.0284,0.0302,0.0341,0.0398,0.0417,0.0336,0.0249,0.0082,-0.0005,-0.016,-0.0171,-0.0227,-0.0158,-0.0134,-0.0146,-0.0146,-0.0159,-0.0159,-0.016,-0.016,-0.0161,0.0158,0.0175,0.0194,0.0225,0.0253,0.0296,0.0323,0.0369,0.0427,0.0479,0.0496,0.0505,0.0413,0.0221,0.0103,-0.0056,-0.0069,-0.0165,-0.0168,-0.0171,-0.0138,-0.0114,-0.0129,-0.013,-0.013,-0.0131,-0.0131,0,0.0189,0.0206,0.0239,0.0272,0.0304,0.0315,0.0374,0.0404,0.0485,0.0523,0.0571,0.0475,0.0403,0.0263,0.0068,-0.0047,-0.0059,-0.0119,-0.011,-0.0116,-0.0121,-0.0086,-0.0064,-0.0064,-0.0065,-0.0065,0,0,0.0206,0.0235,0.0246,0.0302,0.0332,0.0372,0.0406,0.0466,0.0494,0.0535,0.0524,0.0536,0.041,0.0262,0.0141,0.0028,-0.0033,0.0002,-0.0035,-0.0014,-0.0019,-0.0122,-0.0071,0,0,0,0,0]}],[{"header":{"parameterUnit":"m.s-1","parameterCategory":2,"la1":30.2991,"la2":30.254,"lo1":-89.0895,"lo2":-89.0444,"dy":0.0017,"dx":0.0017,"nx":28,"ny":28,"refTime":"2025-01-04T09:00:00:Z","depth":"4","parameterNumber":2,"parameterNumberName":"U-component_of_CURRENTS"},"data":[0,0,0,0,0,0,0,0,0,0,0,0,0,0,0,0,0,0,0,0,0,0,0,0,0,0,0,0,0,0,0,0,0,0,0,0,0,0,0,0,0,0,0,0,0,0,0,0,0,0,0,0,0,0,0,0,0,0,0.0942,0.0943,0,0.0968,0.0968,0.0968,0.1005,0.1006,0.1006,0.1007,0.1046,0.1047,0.1047,0,0,0,0,0,0,0,0,0,0,0,0,0,0.0911,0.0911,0.0942,0.0943,0.0943,0.0968,0.0968,0.0969,0.1005,0.1006,0.1006,0.1007,0.1046,0.1047,0.1047,0,0,0,0,0,0,0,0,0,0,0,0,0,0.093,0.0912,0.0942,0.0963,0.0965,0.0968,0.0968,0.0969,0.1005,0.1006,0.1006,0.1007,0.1046,0.1047,0.1048,0.1037,0,0,0.105,0.105,0,0,0,0,0,0,0,0,0.0929,0.0931,0.096,0.0962,0.0964,0.0983,0.0971,0.0992,0.1005,0.0991,0.1007,0.1008,0.1025,0.1028,0.1032,0.1038,0.104,0.105,0.1051,0.1051,0.1051,0,0,0,0,0,0,0,0.0928,0.093,0.0954,0.096,0.0963,0.0966,0.097,0.0975,0.1004,0.0992,0.0995,0.0995,0.1027,0.1031,0.1033,0.1041,0.105,0.1051,0.1051,0.1052,0.1105,0.1106,0,0,0,0,0,0,0.0922,0.0929,0.0953,0.0954,0.0947,0.0966,0.097,0.0977,0.1004,0.1008,0.0995,0.0997,0.1029,0.1032,0.1035,0.1081,0.1051,0.1052,0.1052,0.1104,0.1105,0.1106,0,0,0,0,0,0,0.0922,0.0924,0.0952,0.0941,0.0945,0.0966,0.0973,0.0977,0.1004,0.1006,0.1011,0.102,0.103,0.1034,0.1061,0.1081,0.1052,0.1053,0.1103,0.1104,0.1106,0.1137,0,0,0,0,0,0,0.0921,0.0924,0.0939,0.0941,0.0945,0.0966,0.0972,0.0977,0.1001,0.1005,0.1028,0.1031,0.1031,0.106,0.1062,0.1082,0.1054,0.1102,0.1104,0.1105,0.1135,0.1139,0.1143,0,0,0,0,0,0.092,0.0931,0.0939,0.0943,0.0961,0.0967,0.097,0.0988,0.1002,0.1015,0.1034,0.1032,0.1072,0.1061,0.1063,0.1084,0.1101,0.1103,0.1105,0.1133,0.1138,0.1143,0,0,0,0,0,0,0.0927,0.0936,0.0945,0.096,0.097,0.0973,0.0989,0.0999,0.1024,0.1037,0.1041,0.1046,0.1078,0.1076,0.1064,0.1105,0.1087,0.1089,0.1107,0.1112,0.1116,0.1108,0.1054,0,0,0,0,0,0.0933,0.0947,0.0952,0.0967,0.0975,0.0987,0.0997,0.1008,0.1022,0.1036,0.1051,0.1068,0.1083,0.1095,0.1106,0.1126,0.1128,0.1142,0.1146,0.115,0.1145,0.1158,0.1163,0.1113,0.1113,0.1113,0,0,0.094,0.0947,0.0956,0.097,0.0982,0.0992,0.0996,0.1016,0.103,0.1035,0.107,0.1085,0.1092,0.1118,0.1132,0.1122,0.1171,0.1152,0.1155,0.1148,0.1161,0.1166,0.117,0.1114,0.1114,0.1114,0,0,0.0948,0.0968,0.098,0.0989,0.1007,0.1012,0.1022,0.1039,0.1057,0.1084,0.1094,0.1118,0.1144,0.115,0.1155,0.1187,0.1192,0.1201,0.1215,0.1229,0.1233,0.1236,0.1267,0.1273,0.1203,0.1203,0.1203,0,0.0959,0.0972,0.0984,0.0996,0.1006,0.1023,0.1036,0.1051,0.1077,0.1091,0.1103,0.1145,0.1154,0.1176,0.1192,0.1196,0.1213,0.1195,0.1234,0.1237,0.124,0.127,0.1276,0.1204,0.1204,0.1204,0.1204,0,0.0966,0.0986,0.0995,0.1016,0.1028,0.1044,0.1059,0.1083,0.1109,0.1122,0.1161,0.1176,0.1199,0.1211,0.1212,0.1242,0.1252,0.1237,0.1219,0.1247,0.1277,0.1283,0.1207,0.1206,0.1206,0.1205,0,0,0.0966,0.0995,0.1001,0.1015,0.1042,0.105,0.1078,0.1102,0.112,0.1157,0.118,0.1214,0.1229,0.1236,0.1246,0.1259,0.1303,0.1263,0.1263,0.1291,0.1356,0.1249,0.1245,0.1301,0.1302,0.1302,0.1377,0,0.0972,0.0994,0.1008,0.1034,0.1047,0.1071,0.1091,0.1117,0.1142,0.1169,0.1196,0.1223,0.1237,0.1254,0.1273,0.1291,0.1317,0.1286,0.1327,0.1328,0.1226,0.1246,0.1304,0.1381,0.1382,0.1383,0.1384,0,0.0971,0.0987,0.1013,0.1043,0.1052,0.1072,0.1106,0.1127,0.1162,0.1186,0.122,0.1236,0.1274,0.1272,0.1331,0.1316,0.1343,0.1355,0.1358,0.1245,0.123,0.1342,0.1394,0.1393,0.1392,0.1392,0.1391,0,0.0954,0.099,0.1012,0.1023,0.1059,0.1081,0.1105,0.1138,0.1156,0.1199,0.1214,0.126,0.1305,0.1323,0.1363,0.1354,0.1419,0.1405,0.1339,0.1333,0.1395,0.139,0.1443,0.1443,0.1442,0.1442,0.1442,0,0.0942,0.0963,0.1011,0.1022,0.105,0.108,0.111,0.1138,0.1173,0.1192,0.1227,0.1241,0.1323,0.1362,0.1373,0.1374,0.1435,0.134,0.1336,0.1411,0.1407,0.1401,0.1395,0.1445,0.1444,0.1444,0.1443,0,0.0915,0.0947,0.0977,0.1026,0.1043,0.1066,0.1112,0.1125,0.1168,0.1191,0.1206,0.1269,0.1305,0.1358,0.1415,0.1396,0.139,0.138,0.1478,0.1479,0.1299,0.1295,0.1301,0.1298,0.1295,0.1293,0.1291,0,0.0899,0.0914,0.0974,0.0991,0.1019,0.1057,0.1073,0.1122,0.1127,0.1185,0.1182,0.1248,0.1277,0.1271,0.1336,0.135,0.1339,0.1357,0.13,0.1284,0.1281,0.1281,0.128,0.1286,0.1285,0.1285,0.1284,0,0.0871,0.0905,0.0929,0.0964,0.0993,0.1009,0.1037,0.1023,0.1073,0.1134,0.1118,0.1125,0.1175,0.1205,0.1245,0.1245,0.1342,0.1327,0.1332,0.1279,0.1266,0.1266,0.1268,0.1274,0.1275,0.1276,0.1277,0,0.0855,0.0866,0.0904,0.0924,0.0958,0.0938,0.0955,0.0949,0.0959,0.1011,0.1018,0.1066,0.1161,0.1152,0.1166,0.117,0.1149,0.1129,0.1144,0.1156,0.1071,0.1031,0.096,0,0,0,0,0,0.0832,0.0835,0.0855,0.0869,0.0897,0.091,0.0919,0.0929,0.0973,0.0932,0.0964,0.0979,0.0997,0.1029,0.1002,0.1106,0.1161,0.1074,0.1147,0.1219,0.123,0.1142,0,0,0,0,0,0,0.0815,0.0838,0.0838,0.0818,0.0814,0.0827,0.0821,0.0845,0.0806,0.0865,0.0865,0.0945,0.0964,0.1012,0.0997,0.101,0.1039,0.1123,0.112,0.1212,0.1223,0.1232,0.1145,0,0,0,0,0]},{"header":{"parameterUnit":"m.s-1","parameterCategory":2,"la1":30.2991,"la2":30.254,"lo1":-89.0895,"lo2":-89.0444,"dy":0.0017,"dx":0.0017,"nx":28,"ny":28,"refTime":"2025-01-04T09:00:00:Z","depth":"4","parameterNumber":3,"parameterNumberName":"V-component_of_CURRENTS"},"data":[0,0,0,0,0,0,0,0,0,0,0,0,0,0,0,0,0,0,0,0,0,0,0,0,0,0,0,0,0,0,0,0,0,0,0,0,0,0,0,0,0,0,0,0,0,0,0,0,0,0,0,0,0,0,0,0,0,0,0.0093,0.0093,0,0.0085,0.0084,0.0084,0.0083,0.0083,0.0083,0.0083,0.0074,0.0073,0.0073,0,0,0,0,0,0,0,0,0,0,0,0,0,0.0108,0.0108,0.0093,0.0093,0.0093,0.0085,0.0084,0.0084,0.0083,0.0083,0.0083,0.0083,0.0074,0.0073,0.0073,0,0,0,0,0,0,0,0,0,0,0,0,0,0.01,0.0108,0.0093,0.0091,0.0091,0.0085,0.0084,0.0084,0.0083,0.0083,0.0083,0.0083,0.0074,0.0073,0.0073,0.0067,0,0,0.0071,0.0071,0,0,0,0,0,0,0,0,0.0101,0.01,0.0092,0.0091,0.0091,0.0085,0.0086,0.0079,0.0083,0.0086,0.0083,0.0083,0.0077,0.0077,0.0074,0.0067,0.0066,0.0071,0.0071,0.0071,0.0071,0,0,0,0,0,0,0,0.0101,0.01,0.0089,0.0092,0.0091,0.0091,0.009,0.0085,0.0081,0.0085,0.0085,0.0085,0.0077,0.0075,0.0074,0.0066,0.0071,0.0071,0.0071,0.007,0.0049,0.0048,0,0,0,0,0,0,0.0103,0.0101,0.009,0.0089,0.0097,0.0091,0.0089,0.0087,0.0081,0.008,0.0085,0.0085,0.0076,0.0075,0.0074,0.007,0.0071,0.007,0.007,0.0049,0.0048,0.0048,0,0,0,0,0,0,0.0103,0.0102,0.009,0.0095,0.0094,0.009,0.0087,0.0086,0.0086,0.008,0.0079,0.0085,0.0076,0.0075,0.0071,0.0069,0.007,0.007,0.0049,0.0049,0.0048,0.006,0,0,0,0,0,0,0.0104,0.0102,0.0101,0.0095,0.0093,0.0089,0.0087,0.0086,0.0086,0.0086,0.008,0.008,0.0076,0.0072,0.0071,0.0069,0.0069,0.005,0.0049,0.0048,0.006,0.006,0.006,0,0,0,0,0,0.0104,0.0103,0.0101,0.01,0.0092,0.009,0.0089,0.0087,0.0086,0.0087,0.0082,0.008,0.0068,0.0072,0.007,0.0068,0.005,0.0049,0.0048,0.006,0.006,0.006,0,0,0,0,0,0,0.0109,0.0103,0.0101,0.0098,0.0095,0.0089,0.009,0.0088,0.0085,0.0085,0.0079,0.0078,0.0074,0.0068,0.0072,0.0059,0.0057,0.0056,0.0066,0.0066,0.0066,0.0077,0.0069,0,0,0,0,0,0.011,0.0108,0.0102,0.0101,0.01,0.0095,0.0094,0.0092,0.0088,0.0087,0.0082,0.0075,0.0069,0.0066,0.006,0.0054,0.0058,0.005,0.005,0.005,0.0057,0.0066,0.0068,0.0046,0.0046,0.0046,0,0,0.0111,0.0108,0.0107,0.0102,0.0099,0.0099,0.0095,0.0094,0.0094,0.0086,0.0085,0.0077,0.0067,0.0061,0.0058,0.0058,0.0056,0.0049,0.005,0.0057,0.0066,0.0068,0.007,0.0046,0.0046,0.0046,0,0,0.0114,0.011,0.011,0.0109,0.0106,0.0104,0.0104,0.0099,0.0098,0.0094,0.0087,0.008,0.007,0.0063,0.0058,0.0054,0.0056,0.0048,0.0058,0.0066,0.0069,0.0071,0.0071,0.0073,0.0048,0.0048,0.0048,0,0.0117,0.0114,0.011,0.011,0.0111,0.0107,0.0108,0.0106,0.01,0.0102,0.0096,0.0086,0.0072,0.0071,0.0063,0.0055,0.006,0.006,0.0068,0.007,0.0072,0.0072,0.0074,0.0048,0.0048,0.0048,0.0048,0,0.0118,0.0118,0.0118,0.0117,0.0117,0.0118,0.0116,0.0116,0.0113,0.0111,0.0111,0.0097,0.0095,0.0081,0.0069,0.0073,0.0071,0.0069,0.0072,0.0075,0.0074,0.0076,0.0049,0.0049,0.0049,0.0049,0,0,0.0121,0.0119,0.012,0.0123,0.0121,0.0123,0.0126,0.0128,0.014,0.0129,0.0145,0.0117,0.0117,0.0111,0.0098,0.0095,0.0099,0.0087,0.0087,0.0093,0.0116,0.0087,0.0086,0.0103,0.0104,0.0104,0.0107,0,0.0124,0.0126,0.0125,0.0131,0.0132,0.0133,0.014,0.0143,0.0149,0.0163,0.0152,0.0159,0.0128,0.0131,0.0124,0.0116,0.0107,0.0098,0.0106,0.0106,0.0086,0.0089,0.0106,0.0109,0.0109,0.011,0.011,0,0.0125,0.0126,0.0132,0.0141,0.0143,0.0149,0.0167,0.0173,0.019,0.0197,0.0205,0.0205,0.0203,0.0177,0.0166,0.0166,0.0138,0.0123,0.0123,0.0096,0.0081,0.0105,0.0114,0.0113,0.0113,0.0113,0.0113,0,0.0127,0.0133,0.0138,0.014,0.015,0.0157,0.0165,0.0183,0.02,0.0226,0.0248,0.0249,0.0258,0.0237,0.02,0.019,0.0189,0.0174,0.0118,0.0115,0.0137,0.0134,0.0156,0.0156,0.0156,0.0156,0.0156,0,0.0128,0.0133,0.0142,0.0144,0.016,0.0166,0.0192,0.0202,0.0235,0.0266,0.0269,0.0295,0.0274,0.0271,0.0228,0.0185,0.0212,0.0123,0.0117,0.0139,0.0137,0.0137,0.0135,0.0156,0.0156,0.0156,0.0156,0,0.0127,0.0131,0.0139,0.0153,0.0159,0.0171,0.0203,0.0227,0.0257,0.0303,0.0316,0.0337,0.0334,0.0305,0.0273,0.022,0.0183,0.0152,0.0181,0.0176,0.0094,0.0092,0.0099,0.0098,0.0097,0.0097,0.0096,0,0.0125,0.013,0.0145,0.0154,0.0159,0.018,0.02,0.0231,0.0261,0.0326,0.0351,0.0368,0.0371,0.0315,0.0272,0.0201,0.017,0.0144,0.0108,0.0096,0.009,0.0089,0.0088,0.0095,0.0095,0.0094,0.0094,0,0.0122,0.013,0.0137,0.0154,0.0172,0.0195,0.0226,0.0253,0.0303,0.0337,0.0377,0.0361,0.0354,0.0308,0.0253,0.0195,0.0165,0.0135,0.0135,0.0101,0.0091,0.0085,0.0086,0.0091,0.0092,0.0092,0.0092,0,0.0121,0.0125,0.0137,0.0152,0.0175,0.0203,0.0222,0.026,0.0292,0.0365,0.0375,0.038,0.0386,0.0304,0.0259,0.0202,0.0169,0.0125,0.0125,0.0128,0.0125,0.0116,0.0123,0,0,0,0,0,0.0118,0.0122,0.0135,0.0151,0.0176,0.0188,0.0237,0.0261,0.0318,0.0342,0.0359,0.0353,0.0298,0.0283,0.0219,0.0225,0.0151,0.0144,0.0098,0.0076,0.0079,0.0068,0,0,0,0,0,0,0.0114,0.0124,0.0129,0.0149,0.0159,0.0189,0.0219,0.0258,0.0271,0.0321,0.0296,0.0306,0.0254,0.0332,0.0209,0.0196,0.0148,0.013,0.0127,0.0074,0.0077,0.008,0.0069,0,0,0,0,0]}]]